Showing default

BRO-6, 52422

Orbit data source: Space-Track

BRO-6, 52422 is a payload satellite owned by Unseen Labs (FR) in SSO that was launched on Mon, 02 May 2022 UTC via an ELECTRON launch vehicle from the Rocket Lab Launch Complex (RLLC). Payload-class satellites include a variety of spacecraft equipped with specific instruments for various scientific and technological missions. These include communications satellites like Starlink; space stations such as the ISS; scientific satellites like the Hubble; Earth observation satellites from companies like Planet Labs, Umbra, and HawkEye 360; GPS; miniature CubeSats for education and research; and military/defense satellites.

Loading next visibility...
Identifier
52422, 2022-047AE
Orbit
SSO
Country
Flag of FRFR
Related business
Manufacturer
GOMSpace
Mission
Operational Commercial Sigint
Bus & Motor
CUBESAT 6U, Unknown motor
Mass
10 kg wet, ~10 kg dry
Launch date (UTC)
2022-05-02 (3 years ago)
Launch vehicle
ELECTRON
Launch site
Rocket Lab Launch Complex (RLLC)
Object type
Payload
Rocket body
Debris
Shape & HBR
Box, 0.1 m
Radar Cross Section
0.080 m², Medium (>0.1 m² and < 1m²)

Expand to show TLE details & history
Last TLE update: 5 hours ago

TLE from 5 hours ago
0 BRO-6
1 52422U 22047AE  25298.52255428  .00021632  00000-0  55085-3 0  9999
2 52422  97.3569  22.0839 0004933 184.6509 175.4692 15.39573716194939
Epoch: 2025-10-25T12:32Z
TLE epoch observation values (Epoch: 2025-10-25T12:32:28.689Z)
Latitude
-0.00003°
Longitude
159.81247°
Altitude
453.844 km
Speed
7.638 km/s
True Right ascension
01h 28m 20s
True Declination
0° 00' 00"
Sunlit
Object was in full shadow at epoch
Visualization orbit readout
Latitude
Unknown
Longitude
Unknown
Altitude
Unknown
Speed
Unknown
Apparent Right ascension
Unknown
Apparent Declination
Unknown
Sunlit
N/A
Visualization observer readout
Local Sidereal Time
12:40:39
Azimuth
Unknown
Elevation
Unknown
Doppler factor
Unknown
Orbital elements
Apogee altitude
447.672 km
Perigee altitude
440.941 km
Semi-major axis
6,822.444 km
Eccentricity
0.00049
Inclination
97.3569°
RAAN
22.0839°
Arg. of periapsis
184.6509°
True anomaly
175.47366°
Mean anomaly
175.4692°
Eccentric anomaly
175.47143°
Mean motion
3.85153 °/min
Orbital period
93.47 mins
BSTAR
0.00055085
Loading maneuver chart data...
Computing Atmospheric mass density...

Documentation

Showing up to 5 results
|